Terminal Aerodrome Forecast
Issued by NWS Portland, OR

Home | Current Version | Previous Version | Text Only | Print | Product List | Glossary On
Versions: 1 2 3 4 5 6 7 8 9 10 11 12 13 14 15 16 17 18 19 20
000
FTUS46 KPQR 311326 AAA
TAFSLE
TAF AMD
KSLE 311326Z 3113/0112 27010KT 6SM -RA BR BKN040 OVC060
     FM311900 17007KT P6SM VCSH BKN050
     FM010600 00000KT 4SM BR SCT012 BKN080=

USA.gov is the U.S. government's official web portal to all federal, state and local government web resources and services.